Location: Unspecified
(0.0000°N, 0.0000°E)
Time: 06:55:46
(UTC+00:00)

Freja - Pass Details

Date: 29 May 2024
Orbit: 548 x 1731 km, 63.0° (Epoch: 13 June)

Event Time Altitude Azimuth Distance (km) Brightness Sun altitude
Rises 19:22:10 0° 358° (N) 2,777 8.7 -19.6°
Reaches altitude 10° 19:24:47 10° 14° (NNE) 1,825 7.6 -20.2°
Enters shadow 19:26:35 19° 38° (NE) 1,352 6.6 -20.6°
